QPF
0.02 0.01 0.02 0.02 0.02 0.02 0.04 0.05 0.04 0.02 0.01 0.02 0.02 0.02 0.03 0.03 0.04 0.04 0.04 0.04 0.03 0.03 0.03 0.02 0.03 0.03 0.03 0.03 0.04 0.04 0.04 0.03 0.02 0.02 0.02 0.02 0.02 0.02
0.02 0.02 0.02 0.03 0.03 0.03 0.04 0.04 0.05 0.04 0.01 0.01 0.01 0.02 0.02 0.02 0.03 0.03 0.04 0.04 0.04 0.04 0.03 0.02 0.02 0.01 0.01 0.01 0.02 0.03 0.03 0.02 0.02 0.02 0.02 0.02 0.01 0.01
0.02 0.03 0.03 0.06 0.07 0.05 0.05 0.04 0.03 0.02 0.01 0.01 0.01 0.01 0.02 0.03 0.03 0.03 0.04 0.05 0.05 0.06 0.04 0.03 0.02 0.01 0.01 0.01 0.01 0.02 0.02 0.02 0.02 0.03 0.03 0.03 0.02 0.01
0.03 0.03 0.04 0.05 0.05 0.07 0.05 0.02 0.02 0.01 0.01 0.01 0.01 0.01 0.01 0.01 0.02 0.02 0.03 0.03 0.04 0.04 0.04 0.04 0.04 0.03 0.02 0.01 0.02 0.02 0.01 0.01 0.01 0.02 0.02 0.02 0.02 0.02
0.04 0.04 0.04 0.04 0.04 0.05 0.05 0.03 0.02 0.02 0.01 0.01 0.01 0.01 0.01 0.01 0.02 0.02 0.02 0.01 0.01 0.02 0.02 0.02 0.02 0.03 0.03 0.03 0.02 0.01 0.01 0.01 0.01 0.01 0.02 0.02 0.02 0.02
0.04 0.04 0.04 0.04 0.02 0.03 0.03 0.03 0.02 0.02 0.02 0.02 0.01 0.01 0.01 0.01 0.01 0.02 0.02 0.02 0.01 0.01 0.02 0.02 0.02 0.02 0.03 0.03 0.02 0.02 0.01 0.01 0.01 0.01 0.02 0.02 0.02 0.02
0.04 0.04 0.03 0.02 0.02 0.03 0.03 0.02 0.02 0.03 0.02 0.02 0.02 0.02 0.02 0.02 0.01 0.01 0.01 0.01 0.01 0.01 0.01 0.02 0.02 0.02 0.02 0.02 0.02 0.02 0.02 0.01 0.02 0.02 0.02 0.03 0.03 0.03
0.03 0.02 0.02 0.02 0.02 0.02 0.02 0.02 0.02 0.02 0.02 0.02 0.02 0.02 0.03 0.03 0.02 0.02 0.01 0.01 0.01 0.01 0.01 0.01 0.01 0.02 0.02 0.02 0.02 0.02 0.02 0.02 0.02 0.02 0.02 0.02 0.02 0.03
0.02 0.01 0.01 0.01 0.02 0.02 0.02 0.02 0.02 0.02 0.01 0.01 0.02 0.02 0.02 0.02 0.03 0.03 0.02 0.02 0.01 0.01 0.01 0.01 0.01 0.01 0.02 0.03 0.03 0.03 0.03 0.03 0.02 0.02 0.01 0.01 0.01 0.02
0.02 0.02 0.02 0.01 0.02 0.03 0.02 0.02 0.02 0.02 0.02 0.01 0.01 0.01 0.01 0.01 0.02 0.02 0.02 0.02 0.01 0.01 0.01 0.01 0.00 0.01 0.01 0.02 0.03 0.04 0.03 0.03 0.02 0.01 0.01 0.01 0.01 0.01
0.01 0.01 0.01 0.01 0.03 0.03 0.02 0.01 0.01 0.01 0.01 0.01 0.00 0.01 0.01 0.01 0.01 0.02 0.02 0.02 0.01 0.01 0.01 0.00 0.00 0.00 0.00 0.01 0.03 0.03 0.02 0.02 0.01 0.01 0.01 0.01 0.01 0.01
0.02 0.01 0.02 0.01 0.02 0.02 0.02 0.01 0.01 0.00 0.00 0.00 0.00 0.00 0.00 0.00 0.01 0.02 0.02 0.02 0.01 0.01 0.01 0.01 0.00 0.00 0.01 0.01 0.02 0.03 0.03 0.02 0.01 0.01 0.01 0.01 0.02 0.02
0.01 0.01 0.01 0.01 0.01 0.02 0.01 0.01 0.00 0.01 0.00 0.01 0.01 0.01 0.00 0.01 0.01 0.01 0.02 0.02 0.01 0.01 0.01 0.02 0.02 0.01 0.02 0.01 0.01 0.02 0.03 0.03 0.02 0.01 0.01 0.02 0.03 0.03
0.01 0.01 0.01 0.01 0.01 0.01 0.01 0.01 0.01 0.01 0.01 0.01 0.01 0.01 0.01 0.01 0.01 0.01 0.02 0.02 0.02 0.02 0.02 0.04 0.04 0.03 0.02 0.02 0.01 0.01 0.02 0.02 0.03 0.02 0.02 0.02 0.03 0.05
0.01 0.01 0.01 0.01 0.01 0.01 0.01 0.01 0.00 0.00 0.01 0.01 0.01 0.01 0.01 0.01 0.01 0.02 0.03 0.03 0.04 0.03 0.03 0.03 0.04 0.04 0.03 0.03 0.02 0.01 0.01 0.03 0.03 0.03 0.03 0.02 0.02 0.04
0.01 0.01 0.01 0.01 0.01 0.00 0.00 0.00 0.00 0.00 0.00 0.00 0.01 0.01 0.02 0.03 0.02 0.02 0.03 0.03 0.04 0.05 0.04 0.04 0.04 0.04 0.03 0.03 0.02 0.02 0.02 0.03 0.04 0.04 0.04 0.04 0.04 0.04
0.01 0.01 0.01 0.01 0.01 0.00 0.00 0.00 0.00 0.00 0.00 0.00 0.01 0.02 0.02 0.03 0.03 0.03 0.04 0.03 0.03 0.04 0.04 0.05 0.05 0.04 0.03 0.02 0.02 0.03 0.03 0.04 0.04 0.05 0.05 0.05 0.04 0.04
0.02 0.01 0.01 0.01 0.01 0.01 0.00 0.00 0.00 0.00 0.01 0.01 0.01 0.02 0.03 0.04 0.04 0.04 0.05 0.04 0.03 0.03 0.03 0.04 0.06 0.06 0.05 0.04 0.04 0.04 0.04 0.04 0.04 0.05 0.05 0.04 0.04 0.05
0.02 0.01 0.01 0.01 0.01 0.01 0.01 0.01 0.01 0.01 0.01 0.01 0.01 0.02 0.03 0.04 0.04 0.05 0.06 0.05 0.03 0.03 0.03 0.03 0.04 0.05 0.06 0.05 0.04 0.04 0.04 0.04 0.04 0.04 0.05 0.04 0.04 0.04
0.02 0.02 0.01 0.01 0.01 0.01 0.01 0.01 0.01 0.01 0.01 0.02 0.02 0.02 0.03 0.04 0.05 0.07 0.07 0.06 0.05 0.04 0.05 0.04 0.05 0.06 0.07 0.06 0.04 0.04 0.04 0.04 0.03 0.03 0.02 0.02 0.02 0.02
0.01 0.01 0.02 0.02 0.02 0.02 0.01 0.01 0.01 0.00 0.01 0.01 0.02 0.03 0.04 0.05 0.06 0.08 0.10 0.09 0.07 0.06 0.06 0.07 0.08 0.07 0.06 0.05 0.04 0.03 0.03 0.02 0.02 0.02 0.02 0.02 0.02 0.02
0.02 0.02 0.02 0.02 0.03 0.03 0.02 0.01 0.01 0.01 0.01 0.01 0.02 0.03 0.04 0.05 0.06 0.07 0.08 0.07 0.07 0.06 0.05 0.06 0.06 0.05 0.04 0.04 0.03 0.02 0.02 0.01 0.01 0.01 0.01 0.02 0.02 0.02
0.02 0.02 0.02 0.02 0.02 0.02 0.03 0.03 0.02 0.02 0.02 0.03 0.03 0.04 0.04 0.04 0.04 0.06 0.06 0.05 0.04 0.05 0.06 0.06 0.06 0.05 0.04 0.03 0.03 0.02 0.02 0.02 0.02 0.01 0.01 0.02 0.02 0.02
MSLP
1018.92 1019.10 1019.34 1019.62 1019.95 1020.31 1020.69 1021.07 1021.42 1021.71 1021.93 1022.06 1022.09 1022.01 1021.84 1021.61 1021.32 1021.03 1020.76 1020.54 1020.38 1020.30 1020.27 1020.28 1020.30 1020.31 1020.28 1020.20 1020.05 1019.85 1019.59 1019.29 1018.96 1018.59 1018.20 1017.78 1017.34 1016.89
1019.25 1019.39 1019.55 1019.75 1019.99 1020.27 1020.59 1020.93 1021.27 1021.59 1021.85 1022.03 1022.10 1022.07 1021.92 1021.68 1021.37 1021.04 1020.71 1020.43 1020.21 1020.08 1020.01 1020.01 1020.04 1020.08 1020.10 1020.07 1019.99 1019.85 1019.65 1019.41 1019.11 1018.78 1018.40 1017.98 1017.53 1017.04
1019.68 1019.80 1019.91 1020.04 1020.20 1020.41 1020.66 1020.95 1021.27 1021.58 1021.87 1022.08 1022.20 1022.21 1022.09 1021.86 1021.54 1021.17 1020.79 1020.44 1020.16 1019.95 1019.84 1019.79 1019.79 1019.82 1019.85 1019.84 1019.80 1019.71 1019.56 1019.36 1019.12 1018.83 1018.49 1018.10 1017.67 1017.19
1020.14 1020.26 1020.35 1020.44 1020.54 1020.68 1020.87 1021.11 1021.39 1021.69 1021.98 1022.22 1022.38 1022.42 1022.33 1022.12 1021.81 1021.42 1021.01 1020.61 1020.26 1019.98 1019.79 1019.67 1019.62 1019.60 1019.59 1019.57 1019.52 1019.44 1019.32 1019.16 1018.96 1018.72 1018.44 1018.10 1017.72 1017.28
1020.55 1020.70 1020.80 1020.87 1020.94 1021.03 1021.17 1021.35 1021.59 1021.87 1022.15 1022.40 1022.58 1022.66 1022.61 1022.43 1022.14 1021.76 1021.33 1020.90 1020.50 1020.15 1019.88 1019.68 1019.54 1019.44 1019.37 1019.29 1019.20 1019.09 1018.96 1018.81 1018.64 1018.45 1018.22 1017.96 1017.65 1017.28
1020.85 1021.05 1021.17 1021.25 1021.31 1021.37 1021.46 1021.61 1021.80 1022.05 1022.31 1022.56 1022.75 1022.86 1022.84 1022.71 1022.45 1022.10 1021.69 1021.25 1020.82 1020.43 1020.09 1019.81 1019.57 1019.37 1019.20 1019.03 1018.86 1018.69 1018.52 1018.35 1018.19 1018.03 1017.85 1017.66 1017.43 1017.15
1021.01 1021.25 1021.41 1021.51 1021.57 1021.62 1021.69 1021.79 1021.95 1022.16 1022.39 1022.62 1022.82 1022.94 1022.97 1022.88 1022.68 1022.38 1022.00 1021.58 1021.15 1020.74 1020.35 1019.99 1019.67 1019.37 1019.08 1018.81 1018.55 1018.29 1018.06 1017.85 1017.66 1017.51 1017.37 1017.23 1017.08 1016.88
1021.04 1021.30 1021.50 1021.62 1021.69 1021.74 1021.79 1021.87 1021.99 1022.15 1022.35 1022.56 1022.75 1022.88 1022.94 1022.90 1022.76 1022.52 1022.20 1021.82 1021.41 1020.99 1020.58 1020.17 1019.78 1019.39 1019.01 1018.63 1018.27 1017.92 1017.61 1017.34 1017.12 1016.95 1016.82 1016.71 1016.61 1016.49
1020.95 1021.23 1021.45 1021.60 1021.69 1021.74 1021.78 1021.83 1021.92 1022.04 1022.20 1022.37 1022.54 1022.68 1022.76 1022.76 1022.67 1022.49 1022.23 1021.91 1021.54 1021.14 1020.73 1020.30 1019.86 1019.41 1018.95 1018.49 1018.04 1017.61 1017.21 1016.87 1016.60 1016.40 1016.25 1016.15 1016.08 1016.00
1020.81 1021.10 1021.33 1021.49 1021.60 1021.66 1021.69 1021.73 1021.78 1021.86 1021.97 1022.11 1022.25 1022.38 1022.46 1022.48 1022.43 1022.30 1022.10 1021.83 1021.51 1021.15 1020.75 1020.32 1019.86 1019.38 1018.88 1018.36 1017.85 1017.35 1016.90 1016.49 1016.16 1015.90 1015.72 1015.60 1015.51 1015.44
1020.67 1020.95 1021.19 1021.37 1021.49 1021.56 1021.59 1021.61 1021.63 1021.67 1021.74 1021.84 1021.94 1022.04 1022.11 1022.14 1022.11 1022.01 1021.85 1021.62 1021.34 1021.01 1020.64 1020.23 1019.78 1019.29 1018.78 1018.24 1017.70 1017.16 1016.66 1016.20 1015.81 1015.50 1015.25 1015.08 1014.96 1014.86
1020.56 1020.85 1021.09 1021.28 1021.41 1021.49 1021.52 1021.52 1021.52 1021.53 1021.56 1021.61 1021.68 1021.74 1021.78 1021.80 1021.76 1021.67 1021.53 1021.33 1021.07 1020.77 1020.42 1020.03 1019.61 1019.14 1018.64 1018.10 1017.56 1017.01 1016.47 1015.98 1015.54 1015.16 1014.85 1014.61 1014.43 1014.28
1020.49 1020.78 1021.03 1021.24 1021.38 1021.46 1021.49 1021.49 1021.47 1021.46 1021.45 1021.46 1021.49 1021.51 1021.52 1021.50 1021.44 1021.34 1021.19 1020.99 1020.75 1020.46 1020.13 1019.77 1019.37 1018.93 1018.45 1017.94 1017.41 1016.86 1016.31 1015.79 1015.30 1014.86 1014.49 1014.17 1013.92 1013.71
1020.41 1020.72 1020.99 1021.20 1021.35 1021.44 1021.48 1021.47 1021.45 1021.42 1021.39 1021.37 1021.36 1021.34 1021.31 1021.26 1021.18 1021.05 1020.88 1020.67 1020.42 1020.13 1019.82 1019.47 1019.09 1018.68 1018.23 1017.74 1017.23 1016.69 1016.13 1015.59 1015.06 1014.57 1014.12 1013.74 1013.41 1013.14
1020.30 1020.62 1020.90 1021.13 1021.28 1021.38 1021.42 1021.42 1021.39 1021.35 1021.31 1021.27 1021.24 1021.20 1021.14 1021.06 1020.94 1020.79 1020.60 1020.37 1020.10 1019.81 1019.49 1019.15 1018.79 1018.40 1017.97 1017.50 1017.00 1016.46 1015.90 1015.33 1014.77 1014.23 1013.72 1013.27 1012.88 1012.55
1020.08 1020.42 1020.71 1020.94 1021.10 1021.20 1021.24 1021.25 1021.22 1021.19 1021.15 1021.11 1021.07 1021.02 1020.95 1020.85 1020.72 1020.55 1020.33 1020.09 1019.81 1019.51 1019.19 1018.85 1018.49 1018.11 1017.69 1017.23 1016.72 1016.18 1015.61 1015.01 1014.41 1013.82 1013.27 1012.76 1012.32 1011.95
1019.74 1020.08 1020.38 1020.60 1020.76 1020.85 1020.90 1020.91 1020.89 1020.87 1020.84 1020.82 1020.79 1020.75 1020.68 1020.59 1020.46 1020.28 1020.07 1019.82 1019.54 1019.23 1018.91 1018.57 1018.21 1017.82 1017.40 1016.93 1016.41 1015.85 1015.25 1014.62 1013.98 1013.36 1012.76 1012.21 1011.74 1011.35
1019.24 1019.59 1019.87 1020.08 1020.22 1020.31 1020.35 1020.37 1020.36 1020.36 1020.36 1020.36 1020.36 1020.35 1020.31 1020.24 1020.13 1019.97 1019.77 1019.54 1019.27 1018.98 1018.66 1018.32 1017.95 1017.55 1017.11 1016.63 1016.09 1015.50 1014.87 1014.20 1013.53 1012.87 1012.24 1011.67 1011.18 1010.78
1018.63 1018.95 1019.20 1019.39 1019.52 1019.59 1019.63 1019.65 1019.66 1019.68 1019.71 1019.75 1019.79 1019.82 1019.82 1019.79 1019.72 1019.60 1019.44 1019.24 1018.99 1018.72 1018.41 1018.08 1017.71 1017.31 1016.85 1016.35 1015.78 1015.16 1014.50 1013.81 1013.10 1012.42 1011.77 1011.19 1010.70 1010.30
1017.91 1018.20 1018.42 1018.58 1018.68 1018.74 1018.78 1018.81 1018.84 1018.88 1018.95 1019.03 1019.11 1019.18 1019.24 1019.26 1019.24 1019.17 1019.06 1018.89 1018.69 1018.45 1018.17 1017.85 1017.49 1017.08 1016.62 1016.10 1015.51 1014.87 1014.19 1013.48 1012.76 1012.07 1011.42 1010.84 1010.34 1009.95
1017.11 1017.37 1017.56 1017.69 1017.77 1017.82 1017.85 1017.89 1017.94 1018.01 1018.11 1018.23 1018.36 1018.48 1018.58 1018.66 1018.69 1018.68 1018.61 1018.50 1018.34 1018.14 1017.89 1017.60 1017.26 1016.86 1016.40 1015.88 1015.30 1014.65 1013.97 1013.26 1012.55 1011.87 1011.23 1010.66 1010.18 1009.79
1016.25 1016.47 1016.63 1016.74 1016.80 1016.85 1016.89 1016.93 1017.01 1017.11 1017.24 1017.40 1017.57 1017.73 1017.88 1018.00 1018.09 1018.12 1018.11 1018.05 1017.94 1017.78 1017.57 1017.31 1017.00 1016.63 1016.19 1015.69 1015.12 1014.50 1013.84 1013.17 1012.49 1011.83 1011.22 1010.68 1010.22 1009.84
1015.31 1015.51 1015.65 1015.74 1015.81 1015.85 1015.90 1015.97 1016.07 1016.20 1016.37 1016.56 1016.76 1016.96 1017.15 1017.31 1017.43 1017.51 1017.54 1017.52 1017.45 1017.34 1017.17 1016.95 1016.68 1016.35 1015.95 1015.49 1014.97 1014.40 1013.80 1013.17 1012.55 1011.95 1011.39 1010.89 1010.45 1010.08
Thickness
5684 5683 5682 5681 5681 5680 5678 5675 5669 5664 5665 5669 5671 5674 5673 5673 5672 5671 5670 5669 5668 5667 5666 5665 5664 5663 5662 5660 5659 5658 5657 5656 5655 5654 5653 5651 5650 5649
5680 5679 5678 5678 5677 5676 5675 5673 5670 5665 5662 5665 5666 5668 5668 5667 5667 5666 5666 5665 5664 5663 5662 5662 5661 5660 5658 5657 5655 5654 5653 5652 5650 5649 5648 5647 5646 5644
5676 5675 5674 5674 5672 5671 5670 5669 5666 5663 5659 5660 5662 5663 5662 5661 5661 5661 5661 5661 5660 5659 5659 5658 5657 5656 5654 5653 5651 5650 5649 5647 5646 5645 5643 5642 5641 5640
5671 5670 5670 5670 5668 5666 5665 5663 5662 5660 5657 5654 5655 5656 5656 5656 5656 5655 5656 5656 5655 5655 5655 5654 5653 5652 5650 5649 5648 5646 5645 5643 5642 5640 5639 5637 5636 5634
5667 5666 5666 5665 5663 5662 5660 5659 5657 5657 5654 5651 5650 5650 5650 5651 5650 5650 5650 5650 5650 5650 5650 5650 5649 5648 5646 5645 5644 5643 5641 5639 5638 5636 5634 5632 5630 5628
5663 5662 5661 5660 5659 5658 5656 5654 5653 5651 5649 5646 5645 5644 5644 5645 5644 5643 5643 5644 5644 5645 5645 5645 5644 5643 5642 5642 5640 5639 5638 5635 5633 5631 5629 5627 5624 5622
5658 5658 5658 5657 5657 5655 5654 5651 5648 5645 5642 5640 5639 5638 5638 5639 5639 5639 5638 5637 5638 5639 5638 5639 5639 5638 5638 5637 5636 5635 5633 5631 5629 5626 5624 5621 5618 5616
5652 5652 5652 5652 5652 5651 5650 5648 5646 5642 5638 5636 5635 5634 5635 5635 5635 5634 5632 5631 5631 5634 5632 5633 5633 5632 5633 5632 5632 5631 5629 5627 5625 5622 5619 5616 5613 5609
5647 5646 5647 5647 5646 5644 5643 5642 5641 5640 5638 5635 5632 5632 5632 5632 5631 5629 5628 5627 5627 5630 5627 5627 5628 5627 5629 5629 5629 5628 5626 5624 5621 5618 5615 5611 5607 5604
5643 5642 5641 5641 5641 5639 5637 5636 5635 5635 5634 5633 5632 5631 5631 5630 5628 5627 5626 5624 5624 5624 5623 5621 5623 5623 5626 5626 5625 5624 5623 5620 5617 5614 5610 5606 5603 5599
5638 5638 5637 5636 5635 5634 5631 5629 5628 5629 5630 5629 5629 5628 5627 5626 5624 5621 5620 5618 5617 5618 5618 5616 5618 5617 5619 5620 5621 5620 5618 5616 5613 5610 5606 5603 5599 5595
5632 5632 5632 5631 5630 5628 5626 5624 5622 5623 5623 5623 5622 5622 5622 5621 5621 5619 5617 5614 5612 5612 5615 5612 5612 5610 5611 5614 5615 5615 5613 5611 5609 5606 5602 5599 5595 5590
5625 5625 5626 5626 5625 5623 5622 5620 5620 5619 5617 5616 5615 5615 5615 5616 5616 5616 5615 5613 5610 5610 5612 5608 5606 5605 5603 5605 5608 5609 5607 5605 5603 5601 5598 5595 5591 5587
5621 5621 5621 5621 5620 5618 5617 5616 5615 5613 5611 5609 5608 5608 5609 5610 5611 5612 5611 5610 5610 5609 5609 5606 5603 5601 5599 5599 5600 5602 5602 5601 5599 5597 5595 5592 5588 5585
5616 5617 5616 5615 5614 5612 5612 5611 5610 5607 5605 5603 5603 5604 5605 5606 5606 5606 5607 5606 5606 5606 5605 5604 5602 5600 5597 5596 5596 5597 5596 5597 5595 5593 5590 5588 5585 5582
5610 5610 5609 5609 5608 5608 5607 5606 5605 5604 5602 5601 5601 5601 5601 5600 5600 5600 5600 5600 5600 5601 5603 5602 5600 5598 5595 5595 5594 5594 5593 5592 5592 5590 5586 5584 5582 5579
5604 5602 5602 5602 5601 5602 5602 5602 5601 5600 5599 5597 5597 5596 5596 5596 5597 5597 5596 5595 5594 5595 5596 5598 5597 5596 5595 5593 5592 5592 5591 5589 5588 5587 5583 5580 5579 5577
5598 5597 5598 5598 5598 5598 5598 5598 5598 5597 5597 5595 5594 5593 5593 5593 5593 5594 5593 5592 5592 5592 5592 5593 5592 5590 5589 5590 5591 5589 5588 5587 5585 5583 5581 5577 5575 5575
5594 5595 5595 5595 5596 5596 5596 5595 5596 5597 5596 5594 5592 5592 5591 5591 5591 5591 5590 5590 5590 5591 5591 5590 5588 5586 5584 5584 5587 5588 5586 5584 5582 5580 5577 5574 5572 5572
5592 5593 5593 5594 5594 5594 5594 5594 5594 5594 5593 5592 5591 5591 5590 5589 5589 5589 5588 5588 5589 5589 5588 5588 5586 5586 5584 5583 5582 5583 5584 5582 5579 5577 5574 5571 5570 5569
5590 5590 5591 5591 5592 5592 5593 5593 5593 5593 5592 5591 5590 5590 5590 5589 5589 5588 5588 5588 5588 5587 5586 5587 5588 5588 5585 5582 5579 5579 5580 5580 5579 5575 5572 5568 5566 5564
5588 5589 5590 5590 5590 5591 5591 5591 5591 5591 5590 5590 5590 5589 5589 5589 5588 5588 5587 5587 5587 5586 5587 5587 5587 5585 5582 5579 5578 5576 5575 5576 5575 5574 5572 5570 5565 5562
5587 5588 5588 5589 5589 5589 5589 5589 5589 5589 5589 5588 5588 5587 5587 5586 5586 5586 5586 5585 5585 5584 5584 5583 5582 5581 5579 5578 5576 5573 5572 5571 5569 5568 5567 5567 5566 5565